Weather History for Bangor, ME

Change the Weather History Date:

Thursday, February 14, 2013

  Actual Average Record
Temperature  
Mean Temperature 27 °F 20 °F  
Max Temperature 37 °F 31 °F 51 °F (1937)
Min Temperature 17 °F 10 °F -21 °F (2003)
Degree Days  
Heating Degree Days 38 45  
Month to date heating degree days 649 645  
Since 1 July heating degree days 4865 5052  
Cooling Degree Days 0 0  
Month to date cooling degree days 0 0  
Year to date cooling degree days 0 0  
Moisture  
Dew Point 18 °F    
Average Humidity 64    
Maximum Humidity 81    
Minimum Humidity 47    
Precipitation  
Precipitation 0.00 in 0.09 in 1.46 in (2007)
Month to date precipitation 0.65 1.23  
Year to date precipitation 1.52 4.12  
Snow  
Snow 0.00 in 0.50 in 5.70 in (2007)
Month to date snowfall 22.7 7.5  
Since 1 July snowfall 48.3 43.5  
Snow Depth 11.00 in    
Sea Level Pressure  
Sea Level Pressure 29.87 in    
Wind  
Wind Speed 5 mph (NNW)    
Max Wind Speed 16 mph    
Max Gust Speed 18 mph    
Visibility 10 miles    
Events      
T = Trace of Precipitation, MM = Missing Value Source: NWS Daily Summary

Daily Weather History Graph

Daily Weather History Graph

Search for Another Location

Airport:

Trip Planner

Search our weather history database for the weather conditions in past years. The results will help you decide how hot, cold, wet, or windy it might be!

Date:

Astronomy

Feb. 14, 2013 Rise Set
Actual Time 6:36 AM EST 5:02 PM EST
Civil Twilight 6:06 AM EST 5:32 PM EST
Nautical Twilight 5:32 AM EST 6:06 PM EST
Astronomical Twilight 4:58 AM EST 6:40 PM EST
Moon 8:22 AM EST (2/14) 10:17 PM EST (2/14)
Length of Visible Light 11h 25m
Length of Day
10h 25m
Waxing Crescent, 21% of the Moon is Illuminated
Feb 14
Waxing Crescent
Feb 17
First Quarter
Feb 25
Full
Mar 4
Last Quarter
Mar 11
New

Hourly Weather History & Observations

Time (EST) Temp. Windchill Dew Point Humidity Pressure Visibility Wind Dir Wind Speed Gust Speed Precip Events Conditions
12:53 AM 30.0 °F 24.1 °F 21.9 °F 72% 29.75 in 10.0 mi NNE 5.8 mph - N/A   Overcast
1:53 AM 28.9 °F 20.4 °F 21.0 °F 72% 29.73 in 10.0 mi NNE 9.2 mph - N/A   Overcast
2:53 AM 28.9 °F 25.2 °F 21.0 °F 72% 29.79 in 10.0 mi SSE 3.5 mph - N/A   Overcast
3:53 AM 28.0 °F 20.0 °F 21.0 °F 75% 29.76 in 10.0 mi North 8.1 mph - N/A   Overcast
4:53 AM 26.1 °F 21.9 °F 21.0 °F 81% 29.79 in 10.0 mi NNW 3.5 mph - N/A   Mostly Cloudy
5:53 AM 27.0 °F 23.0 °F 19.9 °F 75% 29.79 in 10.0 mi North 3.5 mph - N/A   Mostly Cloudy
6:53 AM 25.0 °F - 19.0 °F 78% 29.81 in 10.0 mi Calm Calm - N/A   Mostly Cloudy
7:53 AM 24.1 °F 17.0 °F 19.0 °F 81% 29.83 in 10.0 mi NNW 5.8 mph - N/A   Mostly Cloudy
8:53 AM 28.0 °F - 19.9 °F 72% 29.83 in 10.0 mi Calm Calm - N/A   Scattered Clouds
9:53 AM 30.9 °F 24.3 °F 19.9 °F 64% 29.83 in 10.0 mi NNW 6.9 mph - N/A   Scattered Clouds
10:53 AM 33.1 °F 24.9 °F 19.0 °F 56% 29.85 in 10.0 mi NW 10.4 mph - N/A   Scattered Clouds
11:53 AM 35.1 °F 26.4 °F 17.1 °F 48% 29.84 in 10.0 mi NNW 12.7 mph 16.1 mph N/A   Mostly Cloudy
12:53 PM 34.0 °F 26.6 °F 18.0 °F 52% 29.85 in 10.0 mi NNW 9.2 mph - N/A   Mostly Cloudy
1:53 PM 36.0 °F 27.5 °F 18.0 °F 48% 29.85 in 10.0 mi NW 12.7 mph - N/A   Partly Cloudy
2:53 PM 36.0 °F 28.5 °F 17.1 °F 46% 29.86 in 10.0 mi NNW 10.4 mph - N/A   Partly Cloudy
3:53 PM 36.0 °F 31.1 °F 17.1 °F 46% 29.89 in 10.0 mi NNW 5.8 mph - N/A   Partly Cloudy
4:53 PM 34.0 °F 29.8 °F 16.0 °F 48% 29.90 in 10.0 mi NNE 4.6 mph - N/A   Partly Cloudy
5:53 PM 28.4 °F - 15.8 °F 59% 29.92 in 10.0 mi Calm Calm - N/A   Partly Cloudy
6:53 PM 26.1 °F 19.4 °F 16.0 °F 66% 29.96 in 10.0 mi WSW 5.8 mph - N/A   Clear
7:53 PM 25.0 °F - 16.0 °F 69% 29.99 in 10.0 mi Calm Calm - N/A   Clear
8:53 PM 23.0 °F - 15.1 °F 72% 29.99 in 10.0 mi Calm Calm - N/A   Clear
9:53 PM 17.1 °F - 12.9 °F 84% 29.99 in 10.0 mi Calm Calm - N/A   Clear
10:53 PM 21.0 °F - 16.0 °F 81% 29.99 in 10.0 mi Calm Calm - N/A   Clear
11:53 PM 19.9 °F - 16.0 °F 85% 30.00 in 10.0 mi Calm Calm - N/A   Overcast